Regional Weather Roundup
Issued by NWS Charleston, SC

Current Version | Previous Version | Text Only | Print | Product List | Glossary Off
Versions: 1 2 3 4 5 6 7 8 9 10 11 12 13 14 15 16 17 18 19 20 21 22 23 24 25 26 27 28 29 30 31 32 33 34 35 36 37 38 39 40 41 42 43 44 45 46 47 48 49 50
550 ASUS42 KCHS 221927 RWRCHS REGIONAL WEATHER ROUNDUP NATIONAL WEATHER SERVICE CHARLESTON SC 300 PM EDT SUN OCT 22 2017 NOTE: "FAIR" INDICATES FEW OR NO CLOUDS BELOW 12,000 FEET WITH NO SIGNIFICANT WEATHER AND/OR OBSTRUCTIONS TO VISIBILITY. NOT ALL STATIONS ARE QUALITY CONTROLLED. USE DATA WITH CAUTION... ESPECIALLY DEWPOINT OBSERVATIONS. SCZ027-030-031-034>040-042>050-222000- ...SOUTHEAST SOUTH CAROLINA... CITY SKY/WX TMP DP RH WIND PRES REMARKS N CHARLESTON LGT RAIN 75 70 84 E14 30.22F WATERFRONT PRK NOT AVBL JOHNS ISLAND CLOUDY 73 72 94 E7G13 30.21F FOG PINOPOLIS N/A 77 68 73 E7 30.16F MONCKS CORNER MOCLDY 75 66 73 E6 30.21F SUMMERVILLE CLOUDY 73 68 83 CALM 30.22F BEAUFORT MCAS CLOUDY 78 72 81 MISG 30.19F BEAUFORT ARPT RAIN 75 70 83 E10 30.19S HILTON HEAD IS PTSUNNY 75 72 88 E7 30.19F WALTERBORO DRIZZLE 72 70 94 E8 30.22F ALLENDALE N/A 72 70 94 CALM N/A ...SOUTHERN MIDLANDS AND PEE DEE... CITY SKY/WX TMP DP RH WIND PRES REMARKS GEORGETOWN FAIR 79 66 65 E12G17 30.24F KINGSTREE CLOUDY 81 63 54 E9 30.22F ORANGEBURG CLOUDY 78 64 61 VRB6 30.22F BARNWELL DRIZZLE 73 68 83 E6 30.22F AIKEN RAIN 72 63 73 SE14 30.26S MANNING CLOUDY 79 68 69 MISG 30.22F COLUMBIA CLOUDY 80 62 54 SE16 30.22F SUMTER CLOUDY 79 60 51 E9 30.21F FLORENCE CLOUDY 80 62 54 SE8 30.25F MYRTLE BEACH MOSUNNY 79 67 66 E14 30.27F N MYRTLE BEACH PTSUNNY 79 64 60 E13G21 30.26F $$ GAZ063-065-086>088-099>101-113>116-118-119-134>141-150-222000- ...SOUTHEAST GEORGIA... CITY SKY/WX TMP DP RH WIND PRES REMARKS SAVANNAH ARPT PTSUNNY 81 72 74 E12 30.18F HUNTER AAF PTSUNNY 81 72 72 E13 30.15F FORT STEWART PTSUNNY 81 72 74 E7 30.14F STATESBORO CLOUDY 75 67 76 NE5 30.19F SYLVANIA CLOUDY 74 72 93 E6 30.21F CLAXTON CLOUDY 79 71 77 N10 30.17F ...CSRA...CENTRAL AND FAR SOUTHEAST GEORGIA... CITY SKY/WX TMP DP RH WIND PRES REMARKS THOMSON CLOUDY 78 62 57 S7 30.24F AUGUSTA-BUSH LGT RAIN 73 68 84 SE9 30.22R AUGUSTA-DANIEL CLOUDY 80 62 54 SE9 30.21F SWAINSBORO CLOUDY 72 72 100 MISG 30.20F VIDALIA PTSUNNY 81 70 69 NE10 30.17F EASTMAN FAIR 85 53 32 SE9 30.16F HAZLEHURST FAIR 83 60 44 E9 30.13F ALMA PTSUNNY 83 68 60 E7 30.13F WAYCROSS MOSUNNY 87 64 45 SE12 30.12F JESUP NOT AVBL BAXLEY PTSUNNY 82 68 61 E8 30.13F BRUNSWICK PTSUNNY 82 70 65 E13G18 30.15F SAINT SIMONS MOSUNNY 84 75 74 E9 30.14F HX 92 $$ SCZ027-028-034-036>038-045-046-048>050-GAZ119-141-222000- ...LAKE AND SUPPLEMENTAL COASTAL OBSERVATIONS... STATION/POSITION TIME TEMP WIND PRES WAVE SWELL AIR SEA DIR/SP/G HT/PER HT/PER/DIR (UTC) (F) (DEG/KT/KT) (MB) (FT/S) (FT/S/D) WINYAH BAY 1845 76 80/ 12 1024.0F LAKE MURRAY 1820 78 90/ 6/ 12 1022.7 ACE BASIN NERRS 1845 79 70/ 3 1023.0F FORT PULASKI 1900 76 73 80/ 8/ 11 1022.3 SAPELO ISLAND NOT AVBL $$ ANZ835-935-AMZ111-154-330-350-352-354-370-450-454-472-222000- ...C-MAN AND BUOY OBSERVATIONS... STATION/POSITION TIME TEMP WIND PRES WAVE SWELL AIR SEA DIR/SP/G HT/PER HT/PER/DIR (UTC) (F) (DEG/KT/KT) (MB) (FT/S) (FT/S/D) BUOY 41004 1910 79 79 90/ 17/ 23 1022.4 BUOY 41008 1850 79 78 110/ 10/ 12 1020.8F 4/ 8 3/110/ 8 FOLLY BEACH CMAN 1900 73 80/ 11/ 13 1023.6F CAPERS NEARSHORE 1908 72 73 80/ 12/ 16 1022.7F FRIPP NEARSHORE 1908 76 90/ 12/ 17 N/A STATION/POSITION TIME TEMP WIND PRES WAVE SWELL AIR SEA DIR/SP/G HT/PER HT/PER/DIR (UTC) (F) (DEG/KT/KT) (MB) (FT/S) (FT/S/D) 5E ST. MARYS GA 1900 76 N/A 4/ 6 FRYING PAN BUOY 1910 77 77 90/ 12/ 14 1024.3 BUOY 41025 1850 76 81 80/ 4/ 6 1026.2F 3/ 9 3/120/ 9 CAPE LOOKOUT NC 1900 78 90/ 2/ 3 1025.2F BUOY 41002 1850 77 80 90/ 12/ 16 1024.4F 4/ 8 3/ 70/ 8 BUOY 41010 NOT AVBL ST AUGUSTINE FL 1900 75 78 160/ 9/ 11 1020.1F $$

USA.gov is the U.S. government's official web portal to all federal, state and local government web resources and services.